Regional Weather Roundup
Issued by NWS

Home | Current Version | Previous Version | Text Only | Print | Product List | Glossary Off
Versions: 1 2 3 4 5 6 7 8 9 10 11 12 13 14 15 16 17 18 19 20 21 22 23 24 25 26 27 28 29 30 31 32 33 34 35 36 37 38 39 40 41 42 43 44 45 46 47 48 49 50

757
ASUS44 KJAN 232103
RWRMS

MISSISSIPPI HOURLY WEATHER ROUNDUP
NATIONAL WEATHER SERVICE JACKSON MS
400 PM CDT THU OCT 23 2014

NOTE: "FAIR: INDICATES FEW OR NO CLOUDS BELOW 12,000 FEET WITH NO
SIGNIFICANT WEATHER AND/OR OBSTRUCTIONS TO VISIBILITY.

MSZ001>002-007>008-010>013-018>021-025>028-034>036-232200-
NORTHWEST MISSISSIPPI

CITY           SKY/WX    TMP DP  RH WIND       PRES   REMARKS
CLARKSDALE     FAIR      61  48  63 NW8       30.16R
CLEVELAND      FAIR      61  50  67 NW7       30.14R
GREENWOOD      CLOUDY    62  49  62 N5        30.12S
GREENVILLE     CLOUDY    61  49  64 N8        30.13S
GRENADA          N/A    N/A N/A N/A MISG        N/A
OLIVE BRANCH   CLOUDY    61  43  51 NW6       30.14S
OXFORD         FAIR      61  45  55 CALM      30.14R
TUNICA         CLOUDY    61  45  55 N10       30.14F
$$

MSZ003>006-009-014>017-022>024-029>033-037>039-232200-
NORTHEAST MISSISSIPPI

CITY           SKY/WX    TMP DP  RH WIND       PRES   REMARKS
COLUMBUS AFB   CLOUDY    65  46  48 NW7       30.09F
CORINTH        FAIR      64  45  48 N5        30.11S
GOLDN TRIANGLE PTSUNNY   70  43  37 MISG      30.09S
STARKVILLE     FAIR      64  45  48 NW3       30.10S
TUPELO         CLOUDY    65  42  43 CALM      30.10S
$$

MSZ040-058-232200-
CENTRAL MISSISSIPPI

CITY           SKY/WX    TMP DP  RH WIND       PRES   REMARKS
JACKSON INTL   CLOUDY    67  46  47 N5        30.09S
JACKSON HAWKNS CLOUDY    66  45  46 CALM      30.10S
MERIDIAN KEY   CLOUDY    68  41  37 N8        30.07F
MERIDIAN NAS   PTSUNNY   70  40  33 N7        30.08S
RAYMOND        FAIR      66  61  82 CALM      30.09S
VICKSBURG      CLOUDY    67  48  50 N5        30.10R
$$

MSZ059>079-232200-
SOUTH MISSISSIPPI

CITY           SKY/WX    TMP DP  RH WIND       PRES   REMARKS
BROOKHAVEN     FAIR      70  46  43 N6        30.09R
COLUMBIA         N/A    N/A N/A N/A MISG        N/A
HATTIESBURG    PTSUNNY   73  43  33 N9        30.06F
MCCOMB         PTSUNNY   71  44  37 N7        30.06F
NATCHEZ        CLOUDY    66  50  55 NW9       30.10R
PINE BELT      PTSUNNY   72  43  35 N6        30.08S
$$

MSZ080>082-232200-
COASTAL MISSISSIPPI

CITY           SKY/WX    TMP DP  RH WIND       PRES   REMARKS
BAY ST LOUIS   SUNNY     73  37  27 VRB5      30.03F
BILOXI         SUNNY     76  44  31 NE6       30.02F
PASCAGOULA     SUNNY     76  43  30 VRB5      30.02F
GULFPORT       SUNNY     76  44  32 N7        30.02F
$$



USA.gov is the U.S. government's official web portal to all federal, state and local government web resources and services.